Location: Brantley
(31.5822°N, 86.2569°W)
Time: 02:39:17
(UTC+00:00)

Vanguard 3 - Pass Details

Date: 20 February 2026
Orbit: 507 x 3205 km, 33.4° (Epoch: 6 March)

Event Time Altitude Azimuth Distance (km) Brightness Sun altitude
Rises 03:15:06 0° 277° (W) 3,050 10.8 -47.0°
Enters shadow 03:15:54 - 274° (W) 2,739 10.5 -47.2°
Reaches altitude 10° 03:18:12 10° 260° (W) 1,896 - -47.6°
Maximum altitude 03:21:11 19° 212° (SSW) 1,262 - -48.2°
Drops below altitude 10° 03:23:54 10° 163° (SSE) 1,702 - -48.8°
Sets 03:26:29 0° 145° (SE) 2,627 - -49.3°
